Regional Weather Roundup
Issued by NWS

Home | Current Version | Previous Version | Graphics & Text | Print | Product List | Glossary On
Versions: 1 2 3 4 5 6 7 8 9 10 11 12 13 14 15 16 17 18 19 20 21 22 23 24 25 26 27 28 29 30 31 32 33 34 35 36 37 38 39 40 41 42 43 44 45 46 47 48 49 50
065
ASUS43 KFSD 291810
RWRSD

WEATHER ROUNDUP FOR SOUTH DAKOTA
NATIONAL WEATHER SERVICE SIOUX FALLS SD
100 PM CDT SAT APR 29 2017

NOTE: "FAIR" INDICATES FEW OR NO CLOUDS BELOW 12,000 FEET WITH NO
SIGNIFICANT WEATHER AND/OR OBSTRUCTIONS TO VISIBILITY.


SDZ001>005-009-010-012>017-291900-
NORTHWEST AND NORTH CENTRAL SOUTH DAKOTA

CITY           SKY/WX    TMP DP  RH WIND       PRES   REMARKS
BUFFALO          N/A     52  17  25 MISG      30.20F
FAITH            N/A     54  18  24 E6        30.25F
MOBRIDGE       SUNNY     58  15  18 W5        30.24F
$$

SDZ012>016-024>037-041>051-057-063-072>074-291900-
SOUTHWEST AND SOUTH CENTRAL SOUTH DAKOTA

CITY           SKY/WX    TMP DP  RH WIND       PRES   REMARKS
RAPID CTY ARPT SUNNY     51  19  28 NE8       30.26F
PIERRE         LGT RAIN  56  17  21 NE12G21   30.24F
CUSTER         CLOUDY    37  10  32 NE6       30.24S
ELLSWORTH AFB  SUNNY     50  18  28 E6        30.26F
PHILIP         SUNNY     53  15  22 VRB5      30.25F
PINE RIDGE     SUNNY     50  21  32 NE10G17   30.25S
SPEARFISH      FAIR      48  16  27 E14       30.26F
WINNER         FAIR      54  22  28 NE15G25   30.23F
$$

SDZ004>011-016>023-039-040-291900-
NORTHEAST SOUTH DAKOTA

CITY           SKY/WX    TMP DP  RH WIND       PRES   REMARKS
ABERDEEN       CLOUDY    54  15  21 VRB6      30.29F
WATERTOWN      CLOUDY    50  22  33 NE10      30.25F
BROOKINGS      CLOUDY    49  21  33 NE16G23   30.24F
SISSETON         N/A     53  23  31 CALM      30.29F
$$

SDZ017-020-022-023-036>040-048>070-291900-
SOUTHEAST SOUTH DAKOTA

CITY           SKY/WX    TMP DP  RH WIND       PRES   REMARKS
SIOUX FALLS    CLOUDY    52  31  44 E20       30.21F
HURON          CLOUDY    53  20  27 E8G20     30.27F
CHAMBERLAIN    MOSUNNY   53  18  25 N12       30.25S
MITCHELL       CLOUDY    55  22  27 NE15G25   30.25F
YANKTON        MOSUNNY   50  27  40 NE15G25   30.20R
$$

ABBREVIATIONS USED IN REMARKS
   TC - TEMPERATURE IN CELSIUS
  WCI - WIND CHILL INDEX
   HX - HEAT INDEX
  VSB - VISIBILITY





USA.gov is the U.S. government's official web portal to all federal, state and local government web resources and services.